Location: Unspecified
(0.0000°N, 0.0000°E)
Time: 06:34:57
(UTC+00:00)

Vanguard 2 Rocket - Pass Details

Date: 10 October 2023
Orbit: 552 x 3312 km, 32.9° (Epoch: 06 December)

Event Time Altitude Azimuth Distance (km) Brightness Sun altitude
Rises 05:54:12 0° 276° (W) 3,381 9.1 1.8°
Reaches altitude 10° 05:56:58 10° 293° (WNW) 2,733 8.8 2.4°
Maximum altitude 06:01:57 21° 341° (NNW) 2,528 9.0 3.7°
Drops below altitude 10° 06:09:11 10° 26° (NNE) 4,113 10.6 5.5°
Sets 06:14:42 0° 40° (NE) 5,690 11.5 6.8°
